CZ-6A DEB, 60627

Orbit data source: Space-Track

CZ-6A DEB, 60627 is space debris in LEO originally from a launch on Tue, 06 Aug 2024 UTC launched from the Taiyaun Space Center, China (TSC). Debris objects in space refer to the collection of defunct objects orbiting the Earth. Examples of debris include non-operational satellites, rocket bodies, and fragments generated from explosions, collisions, or faulty payload assembly.

Loading next visibility...
Identifier
60627, 2024-140AC
Orbit
LEO
Country
Flag of CNCN / PRC
Related business
Manufacturer
SAST
Mission
Spacecraft
Bus & Motor
Unknown
Mass
Unknown
Launch date (UTC)
2024-08-06 (2 years ago)
Launch vehicle
Unknown
Launch site
Taiyaun Space Center, China (TSC)
Object type
Payload
Rocket body
Debris
Shape & HBR
Unknown shape, 0.3 m
Radar Cross Section
Medium (>0.1 m² and <1 m²)

Expand to show TLE details & history
Last TLE update: 19 hours ago

TLE from 19 hours ago
0 CZ-6A DEB
1 60627U 24140AC  26171.07151140  .00000167  00000-0  15155-3 0  9992
2 60627  88.0558 220.9425 0544195 112.9303 253.0206 13.25528689 90228
Epoch: 2026-06-20T01:42Z
TLE epoch observation values (Epoch: 2026-06-20T01:42:58.584Z)
Latitude
-0.00006°
Longitude
-73.093°
Altitude
1,306.408 km
Speed
7.136 km/s
True Right ascension
14h 43m 46s
True Declination
0° 00' 00"
Sunlit
Object was in full shadow at epoch
Visualization orbit readout
Latitude
Unknown
Longitude
Unknown
Altitude
Unknown
Speed
Unknown
Apparent Right ascension
Unknown
Apparent Declination
Unknown
Sunlit
N/A
Visualization observer readout
Local Sidereal Time
07:16:15
Azimuth
Unknown
Elevation
Unknown
Doppler factor
Unknown
Orbital elements
Apogee altitude
1,571.022 km
Perigee altitude
750.496 km
Semi-major axis
7,538.896 km
Eccentricity
0.05442
Inclination
88.0558°
RAAN
220.9425°
Arg. of periapsis
112.9303°
True anomaly
247.18276°
Mean anomaly
253.0206°
Eccentric anomaly
250.08898°
Mean motion
3.31575 °/min
Orbital period
108.57 mins
BSTAR
0.00015155
Loading maneuver chart data...
Computing Atmospheric mass density...
Loading historical data...
Loading historical data...
Loading historical data...
Loading historical data...
Loading historical data...
Loading historical data...
Loading historical data...

Documentation

Showing up to 5 results
|